Regional Weather Roundup
Issued by NWS Charleston, SC

Current Version | Previous Version | Graphics & Text | Print | Product List | Glossary On
Versions: 1 2 3 4 5 6 7 8 9 10 11 12 13 14 15 16 17 18 19 20 21 22 23 24 25 26 27 28 29 30 31 32 33 34 35 36 37 38 39 40 41 42 43 44 45 46 47 48 49 50
000
ASUS42 KCHS 271212
RWRCHS
REGIONAL WEATHER ROUNDUP
NATIONAL WEATHER SERVICE CHARLESTON SC
800 AM EDT FRI MAR 27 2015

NOTE: "FAIR" INDICATES FEW OR NO CLOUDS BELOW 12,000 FEET WITH NO
SIGNIFICANT WEATHER AND/OR OBSTRUCTIONS TO VISIBILITY.

NOT ALL STATIONS ARE QUALITY CONTROLLED BY THE NATIONAL
WEATHER SERVICE. USE DATA WITH CAUTION...ESPECIALLY
DEWPOINT OBSERVATIONS.

SCZ027-030-031-034>040-042>050-271300-
...SOUTHEAST SOUTH CAROLINA...

CITY           SKY/WX    TMP DP  RH WIND       PRES   REMARKS
N CHARLESTON   MOCLDY    64  61  88 SW7       29.72S
6HR MIN TEMP:  64; 6HR MAX TEMP:  66; 6HR PCP:  0.01;

WATERFRONT PRK NOT AVBL
MOUNT PLEASANT PTSUNNY   64  63  94 W9        29.73R
PINOPOLIS        N/A     64  63  94 SW10      29.62F
MONCKS CORNER  PTSUNNY   64  61  88 SW5       29.71S
SUMMERVILLE    PTSUNNY   63  63 100 SW3       29.73R
BEAUFORT MCAS  PTCLDY    63  61  93 SW9       29.74R
6HR MIN TEMP:  63; 6HR MAX TEMP:  66; 6HR PCP:  0.01;

BEAUFORT ARPT  FAIR      63  63 100 CALM      29.74R
HILTON HEAD IS PTCLDY    64  61  88 SW6       29.75R
WALTERBORO     CLOUDY    63  61  94 SW5       29.72S
ALLENDALE      CLOUDY    64  61  88 SW5       29.71S

...SOUTHERN MIDLANDS AND PEE DEE...

CITY           SKY/WX    TMP DP  RH WIND       PRES   REMARKS
GEORGETOWN     NOT AVBL
KINGSTREE      NOT AVBL
ORANGEBURG     MOCLDY    63  59  87 SW8       29.70S
6HR MIN TEMP:  63; 6HR MAX TEMP:  67;

BARNWELL       CLOUDY    64  63  94 SW7       29.71S
AIKEN          DRIZZLE   61  59  94 S7        29.73R
MANNING        CLOUDY    63  59  88 CALM      29.70S
COLUMBIA       CLOUDY    65  59  81 SW6       29.67S
6HR MIN TEMP:  65; 6HR MAX TEMP:  67;

SUMTER         MOCLDY    64  59  85 SW7       29.66S
6HR MIN TEMP:  62; 6HR MAX TEMP:  66;

FLORENCE       CLOUDY    63  60  90 SW8       29.68S
6HR MIN TEMP:  63; 6HR MAX TEMP:  67;

MYRTLE BEACH   MOCLDY    64  61  88 W8        29.71S
N MYRTLE BEACH FOG       61  60  97 SW9       29.69S VSB 1/2
6HR MIN TEMP:  61; 6HR MAX TEMP:  65; 6HR PCP: TRACE;


$$

GAZ063-065-086>088-099>101-113>116-118-119-134>141-150-271300-
...SOUTHEAST GEORGIA...

CITY           SKY/WX    TMP DP  RH WIND       PRES   REMARKS
SAVANNAH ARPT  CLOUDY    63  60  90 SW8       29.75R
6HR MIN TEMP:  62; 6HR MAX TEMP:  66;

HUNTER AAF     PTCLDY    62  62 100 SW9       29.73S
6HR MIN TEMP:  62; 6HR MAX TEMP:  65; 6HR PCP:  0.01;

FORT STEWART   CLOUDY    64  61  90 SW7       29.73S
6HR MIN TEMP:  63; 6HR MAX TEMP:  66;

STATESBORO     CLOUDY    64  64 100 SW8       29.74R
SYLVANIA       CLOUDY    64  62  94 SW5       29.74R
CLAXTON        FAIR      63  61  94 CALM      29.75R

...CSRA...CENTRAL AND FAR SOUTHEAST GEORGIA...

CITY           SKY/WX    TMP DP  RH WIND       PRES   REMARKS
THOMSON        CLOUDY    62  62  99 CALM      29.75R
AUGUSTA-BUSH   CLOUDY    64  60  87 CALM      29.69S
6HR MIN TEMP:  63; 6HR MAX TEMP:  65;

AUGUSTA-DANIEL LGT RAIN  64  60  87 SW6       29.70R
SWAINSBORO     CLOUDY    64  63  94 SW6       29.73S
VIDALIA        CLOUDY    63  63 100 SW8       29.74S
EASTMAN        CLOUDY    65  65 100 SW6       29.77R
HAZLEHURST     PTSUNNY   63  63 100 SW5       29.75S
ALMA           MOCLDY    63  61  93 SW5       29.77R
6HR MIN TEMP:  63; 6HR MAX TEMP:  63;

WAYCROSS       CLOUDY    67  66  95 W7        29.77R
JESUP          CLOUDY    64  63  94 W5        29.77S
BAXLEY         CLOUDY    64  63  94 W5        29.76R
BRUNSWICK      CLOUDY    64  63  94 W10       29.80R
SAINT SIMONS   CLOUDY    65  63  93 SW8       29.79R
6HR MIN TEMP:  64; 6HR MAX TEMP:  66; 6HR PCP: TRACE;


$$

SCZ027-028-034-036>038-045-046-048>050-GAZ119-141-271300-
...LAKE AND SUPPLEMENTAL COASTAL OBSERVATIONS...

STATION/POSITION TIME  TEMP    WIND        PRES    WAVE   SWELL
                       AIR SEA DIR/SP/G            HT/PER HT/PER/DIR
                 (UTC) (F)     (DEG/KT/KT) (MB)    (FT/S) (FT/S/D)
UPR LAKE MARION  NOT AVBL
WINYAH BAY       1045   64     230/  5     1005.0
LAKE MURRAY      1100   63     230/  7/  9 1004.4S
ACE BASIN NERRS  NOT AVBL
FORT PULASKI     1100   63 62  240/  7/ 11 1007.7R
SAPELO ISLAND    1100   64     230/  8     1008.0R

$$

ANZ835-935-AMZ111-154-330-350-352-354-370-450-454-472-271300-
...C-MAN AND BUOY OBSERVATIONS...

STATION/POSITION TIME  TEMP    WIND        PRES    WAVE   SWELL
                       AIR SEA DIR/SP/G            HT/PER HT/PER/DIR
                 (UTC) (F)     (DEG/KT/KT) (MB)    (FT/S) (FT/S/D)
BUOY 41004       1150   67 70  250/ 19/ 23 1006.0R   6/ 7   2/13
BUOY 41008       1150   62 60  240/ 10/ 10 1008.0R   3/ 8   2/110/ 8
FOLLY BEACH CMAN 1200   63     240/  6/  8 1006.7R
CAPERS NEARSHORE 1100   60     260/ 10/ 12   N/A
FRIPP NEARSHORE  1100   62     250/  8/ 10 1006.5R


STATION/POSITION TIME  TEMP    WIND        PRES    WAVE   SWELL
                       AIR SEA DIR/SP/G            HT/PER HT/PER/DIR
                 (UTC) (F)     (DEG/KT/KT) (MB)    (FT/S) (FT/S/D)
5E ST. MARYS GA  1121      62                N/A     2/ 8
FRYING PAN BUOY  1150   66 65  240/ 17/ 23 1005.6R   5/ 8   3/110/ 8
BUOY 41025       NOT AVBL
CAPE LOOKOUT NC  1100   59     290/  7/  8 1004.7F
BUOY 41002       1150   71 69  210/ 14/ 17 1010.1S   9/ 7   5/330/13
BUOY 41010       1120   77 76  240/ 17/ 21 1011.1R
ST AUGUSTINE FL  1200   64 62  220/  6/  8 1010.8R


$$


USA.gov is the U.S. government's official web portal to all federal, state and local government web resources and services.